Regional Weather Roundup
Issued by NWS

Home | Current Version | Previous Version | Graphics & Text | Print | Product List | Glossary On
Versions: 1 2 3 4 5 6 7 8 9 10 11 12 13 14 15 16 17 18 19 20 21 22 23 24 25 26 27 28 29 30 31 32 33 34 35 36 37 38 39 40 41 42 43 44 45 46 47 48 49 50
000
ASUS43 KLSX 311459
RWRMO

WEATHER SUMMARY FOR MISSOURI
NATIONAL WEATHER SERVICE SPRINGFIELD MO
1000 AM CDT FRI JUL 31 2015

NOTE: "FAIR" INDICATES FEW OR NO CLOUDS BELOW 12,000 FEET WITH NO
       SIGNIFICANT WEATHER AND/OR OBSTRUCTIONS TO VISIBILITY.
       CURRENT SKY AND/OR WEATHER CONDITIONS ARE NOT AVAILABLE FOR
       CHILLICOTHE AND FARMINGTON.

MOZ001>031-035>038-043-044-053-054-311600-
...NORTHERN AND WESTERN MISSOURI...

CITY           SKY/WX    TMP DP  RH WIND       PRES   REMARKS
KANSAS CTY INT SUNNY     77  67  71 SW7       30.17F
KANSAS C DTWN  SUNNY     81  67  62 S8        30.16F
LEE`S SUMMIT   SUNNY     79  66  64 SW3       30.19S
ST JOSEPH      SUNNY     77  68  73 CALM      30.17S
CHILLICOTHE      N/A     80  67  64 VRB6      30.16F
KIRKSVILLE     PTSUNNY   75  66  73 W5        30.15F

$$
MOZ066>068-077>081-088>096-101>105-311600-
...SOUTHWEST MISSOURI...

CITY           SKY/WX    TMP DP  RH WIND       PRES   REMARKS
SPRINGFIELD      N/A     81  63  54 SE3       30.19R
JOPLIN         MOSUNNY   82  65  56 S7        30.18S

$$
MOZ032>034-039>042-045>050-055>058-069>072-311600-
...CENTRAL MISSOURI...

CITY           SKY/WX    TMP DP  RH WIND       PRES   REMARKS
COLUMBIA       SUNNY     81  68  64 NW6       30.16F
JEFFERSON CITY SUNNY     80  64  58 NW3       30.14F
ROLLA          SUNNY     81  62  52 NW7       30.16F
SEDALIA        SUNNY     82  65  56 W5        30.18S
OSAGE BEACH    SUNNY     79  66  65 CALM      30.17F

$$
MOZ051-052-059>065-311600-
...EAST CENTRAL MISSOURI...

CITY           SKY/WX    TMP DP  RH WIND       PRES   REMARKS
ST LOUIS INTL  SUNNY     85  66  53 NW6       30.13F
SPIRIT OF STL  SUNNY     83  68  60 NW5       30.12F
ST CHARLES     SUNNY     83  67  58 NW9       30.11F

$$
MOZ072>076-082>087-097>100-106>115-311600-
...SOUTH CENTRAL AND SOUTHEAST MISSOURI...

CITY           SKY/WX    TMP DP  RH WIND       PRES   REMARKS
CAPE GIRARDEAU SUNNY     83  67  58 N10       30.12S
FARMINGTON     SUNNY     81  66  61 N6        30.19F
POPLAR BLUFF   SUNNY     83  67  58 N10       30.12S
WEST PLAINS    SUNNY     83  64  52 N5        30.20S

$$



USA.gov is the U.S. government's official web portal to all federal, state and local government web resources and services.